Weather History for Arlington, WA

Change the Weather History Date:

Wednesday, May 1, 2013

  Actual Average Record
Temperature  
Mean Temperature 50 °F -  
Max Temperature 62 °F 63 °F 82 °F (2014)
Min Temperature 37 °F 41 °F 30 °F (2011)
Degree Days  
Heating Degree Days 16    
Moisture  
Dew Point 36 °F    
Average Humidity 54    
Maximum Humidity 87    
Minimum Humidity 39    
Precipitation  
Precipitation 0.00 in - - ()
Sea Level Pressure  
Sea Level Pressure 30.58 in    
Wind  
Wind Speed 4 mph (NW)    
Max Wind Speed 13 mph    
Max Gust Speed -    
Visibility 10 miles    
Events      
Averages and records for this station are not official NWS values.
T = Trace of Precipitation, MM = Missing Value Source: NWS Daily Summary

Daily Weather History Graph

Daily Weather History Graph

Search for Another Location

Airport:

Trip Planner

Search our weather history database for the weather conditions in past years. The results will help you decide how hot, cold, wet, or windy it might be!

Date:

Astronomy

May. 01, 2013 Rise Set
Actual Time 5:49 AM PDT 8:22 PM PDT
Civil Twilight 5:14 AM PDT 8:57 PM PDT
Nautical Twilight 4:30 AM PDT 9:42 PM PDT
Astronomical Twilight 3:39 AM PDT 10:33 PM PDT
Moon 1:36 AM PDT (5/1) 11:34 AM PDT (5/1)
Length of Visible Light 15h 43m
Length of Day
14h 33m
Waning Gibbous, 58% of the Moon is Illuminated
May 1
Waning Gibbous
May 2
Last Quarter
May 9
New
May 17
First Quarter
May 24
Full

Hourly Weather History & Observations

Time (PDT) Temp. Windchill Dew Point Humidity Pressure Visibility Wind Dir Wind Speed Gust Speed Precip Events Conditions
7:55 AM 37.4 °F - 33.8 °F 87% 30.60 in 10.0 mi Calm Calm - N/A   Unknown
8:15 AM 41.0 °F - 35.6 °F 81% 30.60 in 10.0 mi Calm Calm - N/A   Clear
8:35 AM 42.8 °F - 35.6 °F 76% 30.60 in 10.0 mi Calm Calm - N/A   Clear
8:55 AM 44.6 °F - 33.8 °F 66% 30.60 in 10.0 mi Calm Calm - N/A   Clear
9:15 AM 44.6 °F - 33.8 °F 66% 30.60 in 10.0 mi Calm Calm - N/A   Clear
9:35 AM 46.4 °F - 35.6 °F 66% 30.60 in 10.0 mi Calm Calm - N/A   Clear
9:55 AM 48.2 °F - 32.0 °F 54% 30.60 in 10.0 mi Calm Calm - N/A   Clear
10:15 AM 48.2 °F - 35.6 °F 62% 30.60 in 10.0 mi Calm Calm - N/A   Clear
10:35 AM 50.0 °F - 35.6 °F 58% 30.60 in 10.0 mi Calm Calm - N/A   Clear
10:55 AM 51.8 °F - 35.6 °F 54% 30.60 in 10.0 mi NNW 5.8 mph - N/A   Clear
11:15 AM 53.6 °F - 35.6 °F 51% 30.60 in 10.0 mi NW 3.5 mph - N/A   Clear
11:35 AM 53.6 °F - 35.6 °F 51% 30.59 in 10.0 mi NNW 3.5 mph - N/A   Clear
12:15 PM 55.4 °F - 37.4 °F 51% 30.59 in 10.0 mi NNW 4.6 mph - N/A   Clear
12:35 PM 57.2 °F - 37.4 °F 48% 30.59 in 10.0 mi West 4.6 mph - N/A   Clear
12:55 PM 57.2 °F - 39.2 °F 51% 30.58 in 10.0 mi West 5.8 mph - N/A   Clear
1:15 PM 57.2 °F - 37.4 °F 48% 30.58 in 10.0 mi WSW 3.5 mph - N/A   Clear
1:35 PM 59.0 °F - 39.2 °F 48% 30.58 in 10.0 mi WNW 5.8 mph - N/A   Clear
1:55 PM 59.0 °F - 39.2 °F 48% 30.58 in 10.0 mi NW 11.5 mph - N/A   Clear
2:15 PM 59.0 °F - 37.4 °F 45% 30.58 in 10.0 mi WNW 8.1 mph - N/A   Clear
2:35 PM 60.8 °F - 39.2 °F 45% 30.58 in 10.0 mi NW 6.9 mph - N/A   Clear
2:55 PM 60.8 °F - 39.2 °F 45% 30.58 in 10.0 mi NW 9.2 mph - N/A   Clear
3:15 PM 60.8 °F - 37.4 °F 42% 30.58 in 10.0 mi NW 11.5 mph - N/A   Clear
3:35 PM 60.8 °F - 39.2 °F 45% 30.58 in 10.0 mi NW 11.5 mph - N/A   Clear
4:15 PM 62.6 °F - 39.2 °F 42% 30.57 in 10.0 mi WNW 10.4 mph - N/A   Clear
4:35 PM 60.8 °F - 39.2 °F 45% 30.57 in 10.0 mi WNW 11.5 mph - N/A   Clear
4:55 PM 60.8 °F - 37.4 °F 42% 30.57 in 10.0 mi NW 10.4 mph - N/A   Clear
5:15 PM 60.8 °F - 37.4 °F 42% 30.56 in 10.0 mi WNW 10.4 mph - N/A   Clear
5:35 PM 60.8 °F - 37.4 °F 42% 30.55 in 10.0 mi West 12.7 mph - N/A   Clear
5:55 PM 60.8 °F - 35.6 °F 39% 30.56 in 10.0 mi WNW 9.2 mph - N/A   Clear
6:35 PM 60.8 °F - 35.6 °F 39% 30.55 in 10.0 mi WNW 9.2 mph - N/A   Clear
6:55 PM 59.0 °F - 35.6 °F 42% 30.55 in 10.0 mi WNW 8.1 mph - N/A   Clear
7:35 PM 55.4 °F - 35.6 °F 47% 30.55 in 10.0 mi NW 8.1 mph - N/A   Clear
7:55 PM 55.4 °F - 35.6 °F 47% 30.55 in 10.0 mi NW 8.1 mph - N/A   Clear
8:15 PM 53.6 °F - 35.6 °F 51% 30.55 in 10.0 mi NW 8.1 mph - N/A   Clear
8:35 PM 51.8 °F - 35.6 °F 54% 30.56 in 10.0 mi NW 9.2 mph - N/A   Clear
8:55 PM 51.8 °F - 35.6 °F 54% 30.56 in 10.0 mi NW 6.9 mph - N/A   Clear
9:15 PM 51.8 °F - 33.8 °F 50% 30.57 in 10.0 mi NNW 8.1 mph - N/A   Clear
9:35 PM 48.2 °F - 33.8 °F 58% 30.57 in 10.0 mi NW 6.9 mph - N/A   Clear
9:55 PM 48.2 °F - 35.6 °F 62% 30.58 in 10.0 mi NW 8.1 mph - N/A   Clear
10:15 PM 46.4 °F 42.4 °F 35.6 °F 66% 30.58 in 10.0 mi NW 8.1 mph - N/A   Clear
10:35 PM 46.4 °F 43.5 °F 33.8 °F 62% 30.57 in 10.0 mi North 5.8 mph - N/A   Clear
10:55 PM 44.6 °F 40.7 °F 35.6 °F 71% 30.57 in 10.0 mi NNW 6.9 mph - N/A   Clear
11:15 PM 44.6 °F 41.4 °F 35.6 °F 71% 30.57 in 10.0 mi North 5.8 mph - N/A   Clear
11:35 PM 46.4 °F 43.5 °F 35.6 °F 66% 30.58 in 10.0 mi NNW 5.8 mph - N/A   Clear
11:55 PM 46.4 °F 45.2 °F 35.6 °F 66% 30.57 in 10.0 mi North 3.5 mph - N/A   Clear